Location: Helsinki
(60.1699°N, 24.9384°E)
Time: 23:40:33
(UTC+02:00)

Altair - Pass Details

Date: 04 November 2020
Orbit: 1502 x 1682 km, 47.2° (Epoch: 25 November)

Event Time Altitude Azimuth Distance (km) Brightness Sun altitude
Rises 09:09:24 0° 274° (W) 4,702 9.6 6.6°
Reaches altitude 10° 09:13:04 10° 262° (W) 3,743 9.2 6.9°
Maximum altitude 09:20:16 25° 212° (SSW) 2,774 9.2 7.5°
Drops below altitude 10° 09:27:40 10° 162° (SSE) 3,845 11.3 8.0°
Sets 09:31:31 0° 150° (SSE) 4,857 12.4 8.3°
